sat.trackr.live / text

‹ back to catalog

STARLINK-36960

NORAD 68225 · 2026-053U

PAYLOAD ACTIVE UNKNOWN

§ Identity

Operator
Country
US
Launch date
2026-03-17
Launch site
AFWTR
Launch vehicle
Mass (kg)
RCS (m²)

Purposes: comms

External: N2YO · Heavens-Above · Gunter

§ Orbital elements

Epoch: 2026-05-25T02:43:32.867040Z

Period
93.90 min
Inclination
97.2865°
Eccentricity
0.0001258
Mean motion
15.33465260 rev/d
Perigee alt
464.6 km
Apogee alt
466.3 km
Semi-major
6,843.6 km
B*
5.8767e-4
RAAN
20.6170°
Arg perigee
93.7467°
Mean anomaly
266.3920°
Rev number
1,191

§ Raw data

STARLINK-369601 68225U 26053U   26145.11357485  .00018957  00000+0  58767-3 0  99962 68225  97.2865  20.6170 0001258  93.7467 266.3920 15.33465260 11915

JSON: /api/v1/satellites/68225 · /tle

For live sub-satellite position, see the globe view (requires WebGL).

§ Visibility from observer

Set your observer location to see the next 7 days of passes ≥ 10°. The values pass through the URL so the page stays shareable.

No JS? Fill the form by hand. The geolocation button needs JavaScript.